Location: UBC Liquid-Mirror Observatory
(49.2876°N, 122.5728°W)
Time: 06:31:46
(UTC-08:00)

Daily predictions for brighter satellites

Satellite Brightness Start Highest point End
(mag) Time Altitude Azimuth Time Altitude Azimuth Time Altitude Azimuth
Cosmos 2181 Rocket 4.4 16:38:15 10° SSE 16:44:15 45° E 16:50:20 10° NNE
SMAP 3.7 16:41:00 10° SE 16:45:10 34° ENE 16:49:23 10° N
Cosmos 2278 Rocket 3.8 16:43:48 10° SE 16:47:00 16° E 16:50:13 10° ENE
Cosmos 1238 Rocket 4.3 16:47:31 10° E 16:48:24 11° E 16:49:19 10° ENE
Cosmos 1782 4.0 16:45:02 10° SSW 16:48:54 45° WNW 16:52:49 10° N
COSMOS 2406 3.3 16:44:32 10° NNW 16:50:17 87° WSW 16:56:02 10° SSE
Cosmos 2251 Rocket 3.9 16:45:20 10° NNW 16:50:30 45° ENE 16:55:36 10° SE
SL-27 R/B 2.9 16:47:01 10° N 16:50:34 42° ENE 16:54:03 10° SE
Nadezhda 1 Rocket 4.2 16:45:51 10° SSW 16:51:56 79° W 16:58:08 10° N
CZ-2C R/B 2.9 16:47:39 10° SE 16:52:22 42° ENE 16:57:12 10° N
Genesis I 4.2 16:49:11 10° NNW 16:52:39 28° NE 16:56:04 10° E
MOZ.5/SAFIR/RUBIN 5/SL-8 4.1 16:48:41 10° N 16:53:20 70° WNW 16:57:59 10° SSW
Cosmos 158 Rocket 4.1 16:49:06 10° NNW 16:54:32 87° ENE 16:59:49 10° SSE
Okean 3 3.5 16:52:31 10° S 16:56:45 64° E 17:00:59 10° NNE
Cosmos 1674 Rocket 4.2 16:52:24 10° SSW 16:56:49 62° WNW 17:01:16 10° N
Cosmos 1602 4.5 16:53:33 10° NNW 16:57:26 59° W 17:01:17 10° S
Meteor 1-5 Rocket 4.1 16:55:21 10° N 17:00:45 69° ENE 17:06:16 10° SSE
MOS 1 4.4 16:56:58 10° SE 17:02:30 58° ENE 17:08:03 10° N
Cosmos 2341 Rocket 4.1 16:56:49 10° N 17:03:04 90° ENE 17:09:17 10° S
Cosmos 1633 3.5 17:00:42 10° NNW 17:04:13 52° W 17:07:42 10° S
Cosmos 2082 Rocket 3.1 17:02:12 10° NNW 17:07:00 27° NE 17:11:48 10° ESE
Okean 1 Rocket 4.0 17:02:51 10° NNW 17:07:05 51° W 17:11:17 10° S
Cosmos 1484 Rocket 4.0 17:04:39 10° ESE 17:07:26 20° ENE 17:10:13 10° NNE
Cosmos 1833 Rocket 3.7 17:03:45 10° NNW 17:08:23 25° NE 17:13:00 10° E
Cosmos 1544 Rocket 3.7 17:07:16 10° N 17:11:39 51° ENE 17:16:00 10° SSE
Cosmos 1500 4.4 17:10:27 10° NNE 17:13:29 22° ENE 17:16:31 10° ESE
COSMO-SKYMED 1 4.2 17:11:18 12° NE 17:13:33 16° E 17:16:16 10° SE
EO 1 Del DPAF 4.2 17:11:44 10° N 17:15:31 49° WNW 17:19:16 10° SW
Cosmos 1975 Rocket 2.9 17:15:21 10° S 17:19:39 77° E 17:24:00 10° NNE
SL-16 R/B 4.3 17:17:45 10° N 17:22:51 28° WNW 17:27:59 10° WSW
CZ-3B DEB 3.0 17:20:28 10° S 17:24:12 37° ESE 17:30:54 14° ENE
Cosmos 864 Rocket 4.5 17:24:33 10° N 17:30:48 66° ENE 17:37:04 10° SSE
Cosmos 2263 Rocket 3.5 17:26:26 10° WSW 17:31:37 36° NW 17:36:51 10° NNE
PAYLOAD A 4.4 17:28:24 10° S 17:33:11 63° WSW 17:38:12 10° NNW
Cosmos 1536 Rocket 4.0 17:32:09 10° SSE 17:36:18 39° E 17:40:30 10° NNE
SJ-7 4.4 17:32:37 10° SSE 17:36:52 86° ENE 17:41:08 10° NNW
Okean 1 3.9 17:36:46 10° SSE 17:40:30 36° E 17:43:14 16° NNE
GEOS 3 Rocket 3.6 17:37:11 10° ESE 17:42:13 62° NE 17:47:18 10° NW
COSMOS 2487 2.9 17:38:59 10° N 17:42:24 39° ENE 17:45:48 10° SE
Cosmos 1812 2.8 17:39:58 10° S 17:43:43 53° E 17:47:03 13° NNE
YAOGAN 1 2.7 17:40:02 10° S 17:44:21 76° WSW 17:48:43 10° NNW
ISS -3.1 17:42:58 10° SW 17:46:13 62° SSE 17:47:33 32° E
CZ-4 R/B 4.4 17:43:21 10° SSE 17:47:30 89° ENE 17:51:42 10° NNW
SPOT 3 Rocket 4.0 17:43:07 10° S 17:48:17 67° WSW 17:53:28 10° NNW
Cosmos 372 Rocket 4.5 17:44:41 10° SW 17:49:53 61° WNW 17:55:07 10° NNE
ATLAS CENTAUR R/B 3.8 17:49:54 10° NW 17:51:59 13° NNW 17:54:02 10° NNE
ASTRO F (AKARI) 4.3 17:52:19 32° NE 17:53:29 53° ESE 17:56:33 10° S
Meteor 1-18 Rocket 4.2 17:49:39 10° S 17:55:17 72° E 18:01:03 10° NNE
USA 234 3.2 17:51:13 20° ENE 17:56:00 82° SE 18:02:34 10° SW
Cosmos 1346 Rocket 3.4 17:52:36 10° SSE 17:56:09 34° E 17:56:33 33° E
Cosmos 1844 Rocket 2.7 17:51:02 10° SSW 17:56:38 82° WNW 18:01:36 14° NNE
Cosmos 1455 Rocket 3.4 17:56:43 10° NNW 18:01:06 66° W 18:05:28 10° S
USA 32 4.3 17:56:00 10° SSW 18:01:13 72° W 18:06:28 10° N
SKYMED 2 3.8 17:59:56 26° NE 18:02:02 45° E 18:06:11 10° S
ERBS 3.9 18:00:07 10° NW 18:02:53 22° N 18:03:06 22° N
NOSS 3-4 (A) 4.0 17:58:40 10° NW 18:05:18 50° NE 18:09:29 24° E
NOSS 3-4 (C) 4.0 17:58:46 10° NW 18:05:24 49° NE 18:09:32 24° E
Abrixas 2.8 18:03:21 10° W 18:06:17 58° SSW 18:06:48 48° SSE
Resurs 01 Rocket 3.8 18:11:16 13° NNE 18:11:16 13° NNE 18:11:50 10° N
IDEFIX/ARIANE 42P 3.6 18:04:14 10° S 18:09:13 48° W 18:14:16 10° NNW
Okean 1-7 Rocket 4.3 18:06:12 10° SSE 18:09:44 33° ESE 18:09:44 33° ESE
Cosmos 1844 3.7 18:08:17 10° SSW 18:13:51 80° WNW 18:17:53 20° NNE
NOSS 3-3 (A) 4.1 18:09:41 10° SSW 18:15:47 59° ESE 18:18:57 31° ENE
NOSS 3-3 (C) 4.1 18:09:48 10° SSW 18:15:54 58° ESE 18:19:02 31° ENE
Cosmos 2297 4.2 18:11:09 10° S 18:16:16 37° ESE 18:17:03 35° E
CZ-4 R/B 3.8 18:13:22 10° SSW 18:16:53 26° W 18:20:22 10° NW
SL-24 DEB 4.3 18:14:42 10° N 18:19:30 83° W 18:24:12 10° S
ATLAS 2AS CENTAUR R/B 4.1 18:12:51 10° NW 18:20:25 45° WSW 18:27:32 10° S
Thor Agena Rocket 4.2 18:15:37 10° N 18:20:42 56° WNW 18:25:49 10° SW
Cosmos 1975 3.4 18:16:49 10° NNW 18:20:50 58° W 18:24:49 10° S
Cosmos 1535 Rocket 4.4 18:20:51 10° N 18:27:09 62° ENE 18:33:19 10° SSE
Cosmos 1934 Rocket 4.1 18:21:34 10° N 18:27:34 50° ENE 18:33:37 10° SSE
Cosmos 1238 Rocket 3.8 18:25:07 10° SW 18:27:50 33° WNW 18:29:31 19° NNW
Cosmos 2278 Rocket 2.1 18:24:35 10° SSW 18:30:15 88° ESE 18:33:06 31° NNE
Genesis I 4.2 18:26:43 10° NW 18:30:31 46° WSW 18:33:33 15° SSE
CZ-2C R/B 4.4 18:26:20 10° SSW 18:30:44 30° W 18:35:16 10° NNW
Timation 2 Rocket 4.3 18:31:43 10° NNW 18:38:32 77° WSW 18:45:24 10° SSE
Cosmos 1743 3.6 18:36:16 10° N 18:44:54 - S 18:38:51 40° NNW
FengYun 1-2 T 4.3 18:40:46 52° ENE 18:41:03 53° ENE 18:46:34 10° N
Meteor 1-19 Rocket 4.2 18:35:42 10° S 18:41:24 63° E 18:43:21 41° NE
Cosmos 1484 Rocket 4.1 18:38:11 10° SSW 18:41:42 38° W 18:45:13 10° NNW
Cosmos 2239 Rocket 4.3 18:37:13 10° N 18:43:30 80° E 18:49:40 10° SSE
Meteor 1-15 Rocket 4.4 18:38:30 10° N 18:44:11 53° ENE 18:44:11 53° ENE
SL-8 R/B 4.0 18:42:16 10° SW 18:46:49 51° SSE 18:46:49 51° SSE
DMSP B5D1-3 4.4 18:46:14 36° NNE 18:48:25 89° ESE 18:53:34 10° SSW
NOAA 12 4.1 18:44:15 10° SSE 18:49:31 80° WSW 18:54:49 10° NNW
COSMO-SKYMED 1 3.0 18:48:31 36° N 18:50:08 62° WNW 18:54:24 10° SSW
Cosmos 2082 Rocket 2.5 18:45:57 10° NNW 18:51:35 68° WSW 18:57:12 10° SSE
Cosmos 1833 Rocket 2.8 18:47:17 10° NNW 18:52:56 76° WSW 18:56:48 21° SSE
Cosmos 1821 Rocket 3.8 18:47:00 10° N 18:53:10 89° E 18:59:15 10° S
METEOR-M 4.1 18:52:50 10° SSE 18:58:10 79° WSW 19:03:34 10° NNW
Meteor 1-13 Rocket 4.3 18:53:14 10° SSW 18:58:56 82° WNW 19:02:14 27° N
Cosmos 1605 Rocket 4.0 18:57:12 10° N 19:02:48 60° NE 19:02:48 60° NE
BREEZE M DEB (TANK) 4.0 19:02:06 10° SW 19:05:51 28° SSW 19:05:51 28° SSW
SL-24 R/B - RUBIN 2 4.4 19:09:34 10° SW 19:16:03 88° SE 19:16:33 78° NE
Timation 1 Rocket 4.4 19:16:38 10° SSW 19:21:49 69° SSW 19:21:49 69° SSW
ISS -0.2 19:19:31 10° W 19:20:13 15° W 19:20:13 15° W
Meteor 2-9 Rocket 4.5 19:22:25 10° NNW 19:27:50 61° W 19:28:01 61° WSW
USA 234 3.6 19:38:34 53° N 19:38:50 53° NNW 19:45:08 10° W
NOSS 3-4 (A) 4.3 19:49:40 10° NW 19:56:26 54° WSW 19:57:00 53° SW
NOSS 3-4 (C) 4.2 19:49:46 10° NW 19:56:32 55° WSW 19:57:03 54° SW
CZ-3B DEB 3.5 19:52:29 10° W 19:58:29 69° N 19:59:30 65° NNE
Cosmos 2278 Rocket 4.2 20:10:43 10° W 20:14:59 22° NW 20:14:59 22° NW
